Regional Weather Roundup
Issued by NWS Newport/Morehead, NC

Current Version | Previous Version | Graphics & Text | Print | Product List | Glossary On
Versions: 1 2 3 4 5 6 7 8 9 10 11 12 13 14 15 16 17 18 19 20 21 22 23 24 25 26 27 28 29 30 31 32 33 34 35 36 37 38 39 40 41 42 43 44 45 46 47 48 49 50
901 ASUS42 KMHX 200413 RWRMHX WEATHER ROUNDUP FOR EASTERN NORTH CAROLINA NATIONAL WEATHER SERVICE NEWPORT/MOREHEAD CITY NC 1200 AM EDT FRI OCT 20 2017 NOTE: "FAIR" INDICATES FEW OR NO CLOUDS BELOW 12,000 FEET WITH NO SIGNIFICANT WEATHER AND/OR OBSTRUCTIONS TO VISIBILITY NCZ015>017-031-032-045>047-102-103-200500- NORTH COAST CITY SKY/WX TMP DP RH WIND PRES REMARKS EDENTON FAIR 56 54 92 CALM 30.21S ELIZABETH CITY FAIR 56 56 100 SW5 30.20S KITTY HAWK FAIR 62 61 96 CALM 30.19S MANTEO FAIR N/A N/A N/A CALM 30.20S HAZE $$ NCZ045>047-081-094-103-104-200500- CENTRAL COAST CITY SKY/WX TMP DP RH WIND PRES REMARKS FRISCO FAIR 59 59 100 N3 30.20S $$ NCZ095-097-098-100-101-200500- SOUTHERN COAST CITY SKY/WX TMP DP RH WIND PRES REMARKS BEAUFORT FAIR 57 56 96 CALM 30.20F CEDAR ISLAND NOT AVBL JACKSONVILLE FAIR 59 58 96 CALM 30.21S PINEY ISLAND N/A N/A N/A N/A CALM 30.20S WILMINGTON FAIR 60 59 96 CALM 30.22S $$ NCZ011>013-027>030-043-044-078>080-089-090>093-098-200500- COASTAL PLAIN CITY SKY/WX TMP DP RH WIND PRES REMARKS AHOSKIE FAIR 49 49 100 CALM 30.21S CLINTON FAIR 54 54 100 CALM 30.22S ELIZABETHTOWN NOT AVBL GOLDSBORO FAIR 55 52 91 CALM 30.20S FOG GREENVILLE FOG 54 54 100 CALM 30.22S VSB 3/4 HAVELOCK FAIR 57 57 100 CALM 30.22S KENANSVILLE FAIR 52 50 93 CALM 30.22S FOG KINSTON FAIR 51 49 95 CALM 30.22S NEW BERN FAIR 57 57 100 CALM 30.22S RICHLANDS FAIR 53 53 100 CALM 30.22S ROCKY MOUNT FAIR 51 51 100 SW3 30.21F FOG WASHINGTON FAIR 55 54 97 CALM 30.21S WHITEVILLE FAIR 57 55 94 CALM 30.23R $$ AMZ130-135-150-152-154-156-158-170-250-252-270-ANZ085-086-088-633-658-670-200500- MARINE OBSERVATIONS STATION/POSITION TIME TEMP WIND PRES WAVE SWELL AIR SEA DIR/SP/G HT/PER HT/PER (UTC) (F) (DEG/KT/KT) (MB) (FT/S) (FT/S) CHESAPEAKE LIGHT NOT AVBL 64 E VA BEACH 0350 68 68 190/ 4/ 6 1022.6 3/ 9 3/ 9 DUCK 0336 65 70 220/ 5/ 5 1022.1 2 E DUCK 0400 70 N/A 3/ 9 OREGON INLET 0348 210/ 2/ 2 N/A 13E OREGON INLT 0348 71 N/A 3/ 8 3/ 8 HATTERAS CG 0336 67 70 10/ 2/ 3 1022.5 DIAMOND BUOY 0350 74 81 50/ 4/ 6 1022.2 4/ 9 3/ 9 CAPE LOOKOUT 0400 67 330/ 5/ 6 1022.4 BEAUFORT LAB 0336 64 71 360/ 3/ 3 1023.0 30 SE NEW RVR IN 0308 74 100/ 2/ 6 1022.6 30 SE NEW RVR IN NOT AVBL 27 SE WRIGHTSVLE 0308 75 76 80/ 6/ 10 1022.7 5 SE WRIGHTSVLE 0308 73 74 90/ 4/ 6 1022.7 225 S CAPE HAT 0350 78 80 50/ 14/ 17 1019.8 6/ 7 5/ 7 41 SE CHARLESTON 0400 76 80 40/ 14/ 16 1021.9 $$

USA.gov is the U.S. government's official web portal to all federal, state and local government web resources and services.